Regional Weather Roundup
Issued by NWS

Home | Current Version | Previous Version | Text Only | Print | Product List | Glossary Off
Versions: 1 2 3 4 5 6 7 8 9 10 11 12 13 14 15 16 17 18 19 20 21 22 23 24 25 26 27 28 29 30 31 32 33 34 35 36 37 38 39 40 41 42 43 44 45 46 47 48 49 50

000
ASUS43 KMKX 181500
RWRWI

WISCONSIN REGIONAL WEATHER ROUNDUP
NATIONAL WEATHER SERVICE MILWAUKEE/SULLIVAN WI
1000 AM CDT THU SEP 18 2014

NOTE: "FAIR" INDICATES FEW OR NO CLOUDS BELOW 12,000 FEET WITH NO
SIGNIFICANT WEATHER AND/OR OBSTRUCTIONS TO VISIBILITY.

WIZ001-002-006>008-014>016-023>028-181600-
NORTHWEST WISCONSIN

CITY           SKY/WX    TMP DP  RH WIND       PRES   REMARKS
SUPERIOR ARPT  CLOUDY    46  40  79 SE9       30.17R
ASHLAND        CLOUDY    45  40  82 E6        30.18S
HAYWARD        CLOUDY    48  45  89 SE7       30.15R
SIREN          CLOUDY    50  47  89 SE5       30.13S
RICE LAKE      CLOUDY    50  47  90 E8        30.16R
LADYSMITH      CLOUDY    50  47  90 SE8       30.17R
EAU CLAIRE     NOT AVBL
MENOMONIE      CLOUDY    49  49  97 E7        30.14R FOG
NEW RICHMOND   CLOUDY    51  51 100 SE7       30.12S FOG
OSCEOLA        CLOUDY    51  51 100 E8        30.14S FOG
$$

WIZ003>005-009-010-017-018-181600-
NORTH CENTRAL WISCONSIN

CITY           SKY/WX    TMP DP  RH WIND       PRES   REMARKS
WOODRUFF       CLOUDY    42  38  88 SE8       30.18R
RHINELANDER    CLOUDY    40  37  89 SE7       30.20R
EAGLE RIVER    CLOUDY    39  36  89 SE6       30.18R
LAND O LAKES   CLOUDY    40  35  83 SE5       30.20R
PHILLIPS       CLOUDY    46  43  91 SE5       30.16S
TOMAHAWK       CLOUDY    43  40  89 S3        30.18S
MEDFORD        CLOUDY    44  43  97 SE7       30.17R FOG
MERRILL        CLOUDY    43  41  93 SE6       30.19R
$$

WIZ029-030-035-036-043>047-181600-
CENTRAL WISCONSIN

CITY           SKY/WX    TMP DP  RH WIND       PRES   REMARKS
WAUSAU         CLOUDY    43  39  86 SE10      30.19R
MOSINEE        CLOUDY    43  43 100 E9        30.21R
MARSHFIELD     CLOUDY    45  43  93 SE12      30.19R FOG
STEVENS POINT  CLOUDY    42  39  89 E7        30.21R
WAUPACA        CLOUDY    47  43  84 E6        30.22R
WAUTOMA        CLOUDY    46  45  93 E6        30.21R
WISC RAPIDS    CLOUDY    46  43  89 SE7       30.21R
CAMP DOUGLAS   NOT AVBL
$$

WIZ011>013-019>022-031-037>040-048>050-181600-
NORTHEAST WISCONSIN

CITY           SKY/WX    TMP DP  RH WIND       PRES   REMARKS
ANTIGO         CLOUDY    39  37  91 E6        30.20R WCI  35
STURGEON BAY   CLOUDY    48  39  71 NE6       30.21R
GREEN BAY      CLOUDY    48  41  76 N7        30.22R
MANITOWOC      NOT AVBL
APPLETON       NOT AVBL
CLINTONVILLE   CLOUDY    45  37  76 E3        30.22S
OSHKOSH        CLOUDY    50  44  80 E7        30.20R
$$

WIZ032>034-041-042-053>061-181600-
SOUTHWEST WISCONSIN

CITY           SKY/WX    TMP DP  RH WIND       PRES   REMARKS
LA CROSSE      CLOUDY    53  50  89 SE8       30.16R
SPARTA         CLOUDY    50  49  96 E5        30.17R FOG
VIROQUA        CLOUDY    50  50 100 SE7       30.16R VSB<1/4
BOSCOBEL       CLOUDY    54  51  90 E3        30.18R
PRAIRIE DU CHI MOSUNNY   53  52  96 E5        30.15R
PLATTEVILLE    FAIR      55  51  88 CALM      30.17R
$$

WIZ056-057-062-063-064-067-068-181600-
SOUTH CENTRAL WISCONSIN

CITY           SKY/WX    TMP DP  RH WIND       PRES   REMARKS
BARABOO/DELLS  CLOUDY    48  47  93 E6        30.18R FOG
LONE ROCK      NOT AVBL
WATERTOWN      CLOUDY    49  49  98 E6        30.19R
MADISON        CLOUDY    50  49  96 E8        30.19R FOG
MIDDLETON      CLOUDY    52  52 100 E7        30.19R
MONROE         FOG       50  50 100 NE7       30.16S VSB<1/4
JANESVILLE     CLOUDY    54  52  94 E7        30.17R FOG
$$

WIZ051-052-058>065-066-070>072-181600-
SOUTHEAST WISCONSIN

CITY           SKY/WX    TMP DP  RH WIND       PRES   REMARKS
MILWAUKEE      CLOUDY    54  49  83 N10       30.18R
WAUKESHA       CLOUDY    52  48  87 NE12      30.19R
MILWAUKEE/TIMM CLOUDY    54  46  76 N8        30.19R
RACINE         CLOUDY    57  52  83 N13       30.18R
BURLINGTON     CLOUDY    54  51  89 NE7       30.17S
KENOSHA        CLOUDY    58  54  86 N7        30.17S
FOND DU LAC    CLOUDY    49  43  80 NE6       30.21R
SHEBOYGAN      CLOUDY    51  44  77 N7        30.20R
WEST BEND      CLOUDY    48  45  87 NE3       30.19R
JUNEAU         CLOUDY    48  45  91 E8        30.21R
$$

LSZ147-162-181600-
LAKE SUPERIOR

STATION/POSITION TIME  TEMP    WIND        PRES    WAVE
                       AIR SEA DIR/SP/G            HT/PER
                 (UTC) (F)     (DEG/KT/KT) (MB)    (FT/S)
W MID LAKE BUOY  1350   44 46  100/ 12/ 14 1023.1R   1/ 5
DEVILS ISLAND    1400   44     110/ 11/ 14 1022.8R
PORT WING        1400   46      80/  4/  6 1021.7S
SAXON HARBOR     1400   44      70/  1/  5 1022.0S
$$

LMZ867-665-643>646-181600-
LAKE MICHIGAN

STATION/POSITION TIME  TEMP    WIND        PRES    WAVE
                       AIR SEA DIR/SP/G            HT/PER
                 (UTC) (F)     (DEG/KT/KT) (MB)    (FT/S)
N MID LAKE BUOY  1350   49 58   40/ 10/ 14 1022.3R   2/ 4
NORTHPORT PIER   1400   48      10/ 10/ 12 1022.7R
KEWAUNEE LAKESHO 1400   48      10/  6/ 10 1021.2R
SHEBOYGAN LAKESH 1400   47 48  350/ 13/ 15 1022.5R
PORT WASHINGTON  1440   53     360/  4/  7 1022.7R
ATWATER BUOY     1400   53     360/ 16/ 19 1022.5R
MILWAUKEE LAKESH 1400   52     350/ 13/ 17   N/A
S MID LAKE BUOY  1350   61 62   CALM  /  2 1020.4R   2/ 5
KENOSHA   LAKESH 1400   56     360/ 10/ 12 1021.0R
$$

TC  - TEMPERATURE IN CELSIUS
VSB - VISIBILITY IN STATUTE MILES
WCI - WIND CHILL INDEX
HX  - HEAT INDEX



USA.gov is the U.S. government's official web portal to all federal, state and local government web resources and services.